Location: Drummondville
(45.8830°N, 72.4830°W)
Time: 23:04:16
(UTC-04:00)

Vanguard 2 - Visible Passes

Search period start: 20 June 2018 00:00
Search period end: 30 June 2018 00:00
Orbit: 553 x 2939 km, 32.9° (Epoch: 20 June)

Date Brightness Start Highest point End Pass type
(mag) Time Alt. Az. Time Alt. Az. Time Alt. Az.
21 Jun 9.6 03:57:58 10° SSW 04:00:33 13° S 04:02:47 10° SE visible
22 Jun 9.4 04:14:43 10° SSW 04:18:26 16° S 04:21:27 10° SE visible
23 Jun 10.0 02:28:51 12° SSE 02:28:51 12° SSE 02:30:48 10° SE visible
24 Jun 9.7 02:45:22 16° S 02:46:07 16° SSE 02:49:57 10° SE visible
25 Jun 9.5 03:01:49 18° SSW 03:04:03 20° S 03:08:25 10° SE visible
26 Jun 10.3 01:16:49 12° SE 01:16:49 12° SE 01:17:51 10° SE visible
26 Jun 9.3 03:18:11 17° SSW 03:21:57 24° S 03:26:36 10° SE visible
27 Jun 10.0 01:33:06 19° SSE 01:33:06 19° SSE 01:36:44 10° ESE visible
27 Jun 9.2 03:34:27 14° SW 03:39:50 26° S 03:44:36 10° SE visible
28 Jun 9.7 01:49:14 25° SSE 01:49:15 25° SSE 01:55:10 10° ESE visible
28 Jun 9.1 03:50:44 10° WSW 03:57:42 27° S 04:02:28 10° SE visible
29 Jun 10.6 00:03:50 11° ESE 00:03:50 11° ESE 00:04:13 10° ESE visible
29 Jun 9.5 02:05:09 27° SSW 02:07:11 29° S 02:13:21 10° ESE visible
29 Jun 9.1 04:08:38 10° WSW 04:15:30 27° S 04:20:14 10° SE visible
